Location: Quebec
(46.8000°N, 71.2500°W)
Time: 02:33:54
(UTC-05:00)

Vanguard 2 Rocket - Visible Passes

Search period start: 18 January 2018 00:00
Search period end: 28 January 2018 00:00
Orbit: 556 x 3326 km, 32.9° (Epoch: 17 January)

Date Brightness Start Highest point End Pass type
(mag) Time Alt. Az. Time Alt. Az. Time Alt. Az.
18 Jan 10.6 06:27:49 10° S 06:30:04 11° SSE 06:32:06 10° SE visible
20 Jan 10.2 06:37:33 10° SSW 06:44:24 18° SSE 06:49:30 10° SE visible
21 Jan 10.5 05:37:52 10° S 05:44:38 16° SSE 05:49:55 10° SE visible
22 Jan 10.7 04:39:07 10° S 04:44:41 13° SSE 04:49:21 10° SE visible
22 Jan 9.9 06:49:33 10° SW 06:58:43 25° SSE 07:04:55 10° ESE visible
23 Jan 10.1 05:48:58 10° SSW 05:58:55 23° SSE 06:05:50 10° ESE visible
24 Jan 10.4 04:48:48 10° SSW 04:58:52 21° SSE 05:06:18 10° ESE visible
25 Jan 10.6 03:49:23 10° S 03:58:39 17° SSE 04:05:59 10° ESE visible
25 Jan 9.8 06:01:13 10° SW 06:13:09 30° SSE 06:20:55 10° ESE visible
26 Jan 10.8 02:51:30 10° SSE 02:58:18 13° SE 03:04:13 10° ESE visible
26 Jan 10.1 05:00:20 10° SSW 05:13:02 28° SSE 05:21:44 10° ESE visible
27 Jan 10.3 03:59:54 10° SSW 04:12:42 25° SSE 04:22:04 10° ESE visible
27 Jan 9.6 06:14:07 10° SW 06:27:20 36° S 06:35:37 10° ESE visible
